Vertical_Velocity
1 0 -1 -1 -0 1 1 1 1 1 1 0 -1 -0 -0 -0 -1 -1 0 1 0 -0 -0 0 1 -1 -0 1 1 2 1 2 1 -1 -0 -0 -1 -0 -1 0 -2 -2 -2 -5
-1 0 1 -1 1 1 0 1 -0 -0 -0 -1 1 1 -0 -1 -1 -1 -2 -2 -2 -0 1 -4 -5 0 1 -2 1 -2 -0 3 2 1 1 -1 -0 -0 1 -0 -3 -2 -3 -1
-1 -1 -1 1 1 -2 -2 -1 -2 -0 0 0 0 -1 -2 -3 -3 -2 -3 -2 -0 -1 -1 0 -1 1 -1 4 1 2 3 0 2 -3 -0 -1 1 1 0 -0 -2 -3 -3 -1
-0 0 1 2 0 -0 -2 -2 0 1 -2 -1 -0 -1 -3 -4 -3 -3 -3 -1 -1 -0 -1 -2 -1 -1 -1 1 0 1 -2 1 2 -2 -2 1 1 2 1 0 0 -3 -3 1
-1 -0 -0 1 -1 -0 2 2 1 -1 -1 0 1 -1 -2 -2 -2 -2 -1 -0 -1 -2 -2 -1 -2 0 3 3 2 2 2 2 -2 -0 -1 0 0 0 1 1 -2 0 2 -0
-1 -2 -1 2 0 1 -0 -1 -1 -2 -2 -1 -1 -2 -1 -3 -1 -1 -2 -3 -2 -2 -0 0 0 1 1 1 0 -0 -2 -1 -1 0 -0 -1 -0 0 2 3 1 3 1 -1
-2 -0 -1 -3 -2 -3 -1 -2 -0 -2 -2 -1 -2 -1 -1 -2 -2 -2 -1 -2 -1 -1 -1 -1 -0 1 0 1 -2 -1 -2 -1 -1 1 0 0 0 0 0 1 -2 -3 -2 -3
0 1 -1 -2 -1 -2 -1 -0 -2 -2 -1 -1 0 -1 -1 -2 -3 -1 -1 -1 -0 -2 -3 1 -0 1 -1 -1 0 -1 -1 -2 -1 0 0 -0 -1 -1 -1 -2 -3 -1 -4 -6
1 -0 -1 -0 1 -1 -2 -2 -2 -3 -2 0 -1 -3 -3 -2 -1 -2 -2 -3 -4 -2 0 1 1 -1 -1 -0 0 0 -1 -1 1 1 0 -1 -2 -1 -1 -0 -2 -2 -1 -1
-2 -1 -2 -1 -1 -3 -1 -1 -1 0 0 -1 -1 -2 -2 -0 -0 -2 -3 -2 -0 -1 -0 0 -0 -1 -1 -0 -0 0 -2 -2 0 1 1 -0 0 -0 -1 -2 -1 -1 -2 -2
1 -0 -3 -0 1 1 1 0 -0 -1 -1 -1 -1 -1 -1 -0 -2 -3 -1 1 -0 -0 -1 -1 -2 -1 -2 -0 -1 -1 -0 -1 1 1 0 1 1 -0 0 1 1 0 1 2
1 -2 -2 -0 1 0 1 1 -0 -1 -1 -1 -2 -1 -1 -1 -2 0 1 0 0 -2 -2 -1 -1 -1 -1 -2 -2 -0 -1 -0 0 0 2 1 1 -1 -0 -0 -2 -1 -0 -2
3 -4 -1 1 1 -0 1 0 -1 -1 -1 -2 -0 -1 -2 -2 -0 1 0 -1 -1 0 -0 -1 -1 -1 -2 -3 -2 -2 -2 -1 -1 1 1 1 1 0 0 -0 0 -1 -0 1
-3 -2 -1 2 2 -0 1 0 -1 -1 -2 -1 -1 -2 -1 0 0 -1 -2 -0 1 -0 -0 -1 -1 -2 -1 -2 -1 -0 0 -1 1 1 1 0 -0 -0 -1 -1 -2 -1 -0 2
-1 -1 1 3 -0 1 1 1 -1 -1 -2 -2 -2 -2 -1 -1 1 -0 1 1 -0 0 -0 -1 -2 -2 -1 -1 -0 1 -0 -1 0 1 1 1 1 -1 -1 -1 -0 -1 0 -0
0 2 4 0 1 0 -0 -1 1 -1 -3 -1 -1 -1 -0 -1 -0 0 0 -1 -0 -0 -0 -1 -2 -1 -2 -0 0 0 0 -0 -1 1 0 1 1 0 -1 -1 -1 -1 1 0
3 3 1 0 0 1 1 1 -0 -2 -2 -2 -3 -3 -0 -0 -0 0 -1 -1 -1 -1 -1 -1 -2 -2 -2 -1 -1 -0 1 -0 -0 0 0 0 1 -0 -2 -1 -1 -1 1 1
1 1 1 1 1 1 1 1 -1 -1 -2 -2 -2 -1 1 -0 -0 -0 -1 -0 -1 -2 -2 -1 -1 -3 -1 -2 -1 -0 0 -1 -0 -0 0 1 1 1 -0 -1 -1 -0 1 0
1 1 1 1 0 1 1 1 0 -3 -3 -1 -2 -0 0 0 1 -2 -1 -1 -2 -2 -2 -2 -3 -3 -2 -2 -1 -1 0 -1 -1 -0 0 0 -0 0 0 -1 -0 -0 0 1
0 -1 1 1 1 1 1 -0 -2 -3 -3 -3 -2 -1 0 1 -1 -1 -2 -2 -2 -2 -3 -4 -4 -2 -1 -2 -1 -1 -0 1 -0 -1 -0 1 -0 -0 -0 -0 0 0 -0 1
-1 0 0 -0 -0 1 0 -1 -3 -2 -2 -3 -1 -0 1 0 -0 -2 -2 -2 -2 -3 -3 -3 -2 -2 -2 -2 -1 -0 -0 0 0 -0 -0 0 0 -1 -0 -0 -1 0 1 -0
0 -0 -0 -1 0 0 -2 -2 -2 -1 -2 -2 -0 1 -0 -0 -0 -2 -2 -2 -3 -3 -3 -3 -2 -1 -1 -1 -2 -1 -1 -0 0 -0 -0 -1 -1 -1 -1 0 -0 -2 -0 1
1 -0 -1 -1 -1 -1 -1 -2 -1 -2 -1 -1 -0 0 -1 0 -2 -2 -0 -3 -4 -4 -2 -0 -2 -2 -1 -0 0 -1 -0 0 0 0 0 -0 -1 -1 -2 -1 0 -0 -1 -0
-0 -1 -1 -0 -1 -3 -1 -1 -1 -2 -1 -1 0 -1 -1 -1 -2 -0 -1 -3 -3 -2 -2 -0 -1 -1 0 -0 0 1 -0 -1 1 0 -0 0 0 0 0 -1 -0 0 -1 -1
-1 -1 -1 -0 -3 0 -1 -1 -3 -1 -2 -0 0 -1 -1 -1 -2 -1 -2 -2 -1 -2 -1 -2 -2 -1 1 1 1 0 0 0 0 1 -0 -1 -1 -1 0 -0 -1 -1 -1 -0
-1 -0 -2 -1 0 0 -1 -1 -3 -1 -1 0 0 -1 -2 -2 0 -2 -2 -2 -1 -0 -2 -3 -3 -2 -0 -1 0 0 -0 -1 -1 -0 0 -1 -1 -2 -1 -0 -1 -1 -2 -1
-1 -2 -1 -0 0 -1 -0 -2 -2 0 0 0 -1 -1 -2 -1 -1 -1 -2 -1 -1 -2 -3 -3 -3 -3 -2 -2 -1 -0 -0 -0 -0 -0 -0 -0 -0 -1 -2 -2 -1 -1 -2 -2
Height
5790 5789 5788 5786 5785 5783 5782 5780 5778 5775 5772 5769 5765 5761 5756 5750 5742 5734 5727 5720 5713 5705 5699 5692 5686 5679 5671 5664 5655 5647 5639 5629 5618 5610 5601 5591 5583 5576 5567 5559 5549 5538 5526 5513
5787 5786 5785 5783 5782 5780 5778 5776 5773 5771 5768 5765 5761 5756 5751 5744 5737 5730 5722 5714 5707 5700 5694 5687 5680 5672 5664 5656 5649 5641 5632 5621 5611 5603 5596 5587 5578 5571 5563 5554 5545 5534 5523 5511
5784 5783 5782 5782 5779 5777 5775 5773 5771 5769 5766 5762 5757 5752 5747 5740 5732 5723 5716 5709 5702 5696 5689 5682 5674 5666 5659 5651 5643 5634 5625 5616 5607 5598 5591 5583 5574 5567 5560 5551 5541 5531 5520 5509
5780 5779 5779 5778 5776 5774 5772 5770 5768 5765 5761 5758 5753 5748 5741 5734 5726 5718 5712 5706 5699 5692 5684 5676 5669 5661 5654 5646 5637 5628 5619 5611 5602 5595 5588 5579 5571 5564 5557 5549 5539 5529 5518 5508
5777 5776 5776 5775 5773 5772 5770 5768 5764 5761 5757 5753 5748 5743 5736 5729 5721 5714 5708 5701 5694 5686 5679 5671 5664 5656 5648 5640 5631 5622 5613 5606 5598 5592 5583 5576 5567 5561 5554 5547 5538 5529 5518 5506
5775 5774 5773 5772 5771 5769 5766 5764 5761 5757 5753 5748 5743 5738 5731 5724 5717 5711 5704 5696 5688 5681 5674 5666 5658 5651 5643 5634 5625 5617 5609 5601 5594 5588 5580 5573 5565 5558 5552 5545 5537 5528 5517 5505
5772 5770 5769 5768 5767 5765 5764 5763 5756 5752 5748 5743 5738 5733 5726 5719 5713 5706 5698 5691 5684 5676 5669 5661 5654 5646 5637 5629 5620 5612 5604 5597 5590 5584 5578 5570 5562 5556 5549 5542 5534 5525 5515 5505
5769 5768 5768 5765 5763 5762 5759 5754 5751 5746 5742 5737 5732 5726 5720 5713 5707 5700 5693 5685 5678 5671 5664 5656 5648 5639 5631 5623 5616 5608 5601 5593 5587 5581 5575 5567 5560 5554 5547 5540 5532 5524 5514 5504
5766 5765 5763 5762 5760 5757 5754 5751 5746 5742 5737 5732 5726 5721 5715 5708 5702 5695 5687 5680 5673 5666 5658 5650 5642 5634 5627 5620 5612 5604 5597 5590 5584 5578 5572 5565 5559 5552 5546 5539 5532 5524 5516 5506
5762 5760 5759 5757 5755 5753 5750 5746 5742 5737 5732 5727 5722 5716 5710 5703 5696 5690 5683 5676 5668 5661 5653 5646 5638 5630 5623 5616 5608 5601 5593 5587 5581 5576 5570 5564 5558 5551 5545 5539 5532 5525 5517 5509
5757 5755 5754 5753 5751 5749 5746 5742 5737 5733 5728 5723 5718 5712 5705 5698 5691 5685 5678 5671 5664 5656 5649 5641 5634 5627 5619 5612 5605 5597 5590 5584 5579 5574 5568 5563 5557 5551 5545 5539 5533 5526 5520 5512
5753 5751 5750 5749 5747 5744 5741 5737 5732 5728 5723 5718 5712 5706 5699 5692 5686 5680 5674 5667 5659 5651 5645 5638 5631 5624 5616 5609 5601 5593 5586 5581 5576 5571 5567 5562 5557 5551 5545 5539 5533 5526 5520 5513
5748 5747 5745 5743 5741 5738 5734 5731 5727 5723 5718 5712 5707 5700 5694 5688 5682 5676 5670 5662 5655 5648 5642 5636 5629 5621 5613 5606 5598 5590 5584 5579 5574 5570 5566 5561 5557 5551 5546 5540 5534 5528 5522 5516
5742 5741 5740 5738 5735 5732 5729 5726 5722 5718 5712 5707 5701 5695 5689 5684 5678 5671 5665 5658 5652 5646 5640 5633 5626 5618 5611 5603 5595 5587 5581 5576 5573 5569 5565 5561 5556 5551 5546 5541 5535 5530 5524 5519
5737 5736 5735 5733 5729 5727 5724 5720 5716 5712 5707 5702 5697 5691 5685 5679 5673 5667 5661 5655 5649 5643 5637 5630 5623 5615 5608 5600 5592 5585 5579 5575 5571 5567 5564 5560 5556 5552 5547 5542 5537 5532 5527 5522
5731 5730 5729 5726 5724 5721 5718 5715 5712 5707 5703 5697 5692 5686 5680 5675 5669 5663 5658 5652 5647 5641 5634 5627 5620 5612 5605 5598 5590 5582 5577 5573 5570 5566 5563 5560 5557 5553 5548 5544 5539 5534 5529 5524
5726 5725 5722 5720 5718 5715 5713 5710 5706 5702 5697 5692 5687 5681 5676 5670 5665 5660 5655 5650 5644 5638 5631 5624 5617 5609 5602 5595 5587 5580 5575 5571 5568 5566 5563 5560 5557 5553 5549 5545 5541 5536 5532 5527
5719 5717 5716 5714 5712 5710 5708 5705 5702 5697 5693 5688 5682 5677 5672 5667 5662 5658 5653 5648 5642 5635 5628 5621 5614 5607 5600 5592 5585 5578 5573 5570 5567 5565 5562 5560 5557 5554 5550 5547 5543 5539 5535 5530
5712 5711 5710 5708 5707 5705 5703 5700 5697 5693 5688 5683 5678 5673 5668 5664 5660 5656 5651 5646 5639 5633 5626 5619 5612 5606 5598 5591 5584 5577 5572 5569 5566 5564 5562 5559 5557 5554 5551 5548 5545 5541 5537 5533
5706 5705 5704 5703 5701 5700 5698 5695 5691 5688 5683 5678 5673 5669 5665 5661 5658 5653 5649 5643 5637 5631 5624 5617 5611 5605 5598 5591 5584 5577 5571 5568 5566 5563 5561 5559 5557 5554 5552 5549 5546 5543 5540 5536
5700 5699 5698 5697 5696 5695 5692 5690 5686 5682 5678 5674 5670 5666 5662 5659 5655 5652 5647 5641 5635 5629 5622 5616 5609 5603 5597 5591 5584 5577 5571 5567 5564 5562 5560 5558 5556 5554 5552 5550 5547 5545 5542 5539
5693 5693 5692 5692 5691 5689 5687 5684 5681 5677 5673 5669 5666 5663 5660 5657 5654 5650 5645 5640 5634 5627 5621 5614 5608 5602 5596 5590 5584 5578 5572 5567 5563 5561 5559 5557 5555 5553 5551 5549 5548 5546 5543 5541
5688 5688 5688 5687 5686 5684 5682 5679 5676 5672 5669 5665 5663 5660 5658 5655 5652 5648 5643 5638 5632 5626 5619 5612 5606 5600 5594 5588 5583 5578 5572 5567 5563 5560 5558 5556 5554 5552 5550 5548 5547 5546 5544 5542
5683 5683 5682 5681 5680 5679 5676 5673 5670 5667 5665 5662 5660 5658 5656 5653 5650 5646 5642 5636 5630 5623 5617 5610 5603 5596 5590 5585 5581 5576 5572 5567 5562 5559 5556 5554 5552 5551 5549 5547 5546 5544 5543 5542
5678 5678 5677 5676 5674 5673 5670 5669 5666 5663 5661 5659 5657 5656 5653 5651 5648 5644 5639 5634 5628 5622 5615 5607 5600 5593 5586 5581 5578 5574 5570 5566 5562 5558 5554 5552 5550 5549 5547 5545 5544 5542 5541 5540
5672 5672 5671 5670 5668 5667 5665 5663 5661 5659 5657 5656 5654 5653 5651 5648 5645 5642 5637 5632 5626 5620 5613 5605 5598 5590 5583 5578 5574 5571 5568 5565 5561 5557 5554 5550 5548 5546 5544 5543 5541 5540 5539 5538
5666 5666 5665 5664 5662 5661 5659 5657 5656 5654 5653 5652 5651 5649 5648 5645 5643 5639 5635 5630 5624 5618 5611 5604 5597 5589 5581 5576 5572 5568 5565 5563 5560 5557 5553 5550 5547 5544 5541 5540 5538 5537 5536 5535